www.pogodaiklimat.ru

Погода и климат >> Архив погоды >> Хорватия >> Senj


ПОГОДА в Senj

  • Прогноз погоды в Senj
  • Монитор погоды в Senj
  • Климат города

АРХИВ ПОГОДЫ в Senj

Время (UTC), дата Ветер
(напр.,м/с)
 
Видим.   Явления Облачность Т
(С)
Тd
(С)
f
(%)
Тe
(С)
Тes
(С)
Комфортность P
(гПа)
Po
(гПа)
Тmin
(С)
Tmax
(С)
R
(мм)
R24
(мм)
S
(см)
04 14.04 ЮВ 1 30 км 1/0
[Ac trans]
+10.4 +6.0 74 +10 +10 1020.2 1016.8
05 14.04 Ю 1 30 км 3/0
[Ac trans Ci fib]
+9.9 +6.1 77 +10 +10 1020.2 1016.8
06 14.04 С 2 30 км 3/0
[Ac trans Ci fib]
+12.0 +5.0 62 +11 +13 1020.5 1017.1 +13.7
08 14.04 СЗ 3 35 км 4/0
[Ci fib]
+18.2 +3.9 39 +18 +25 1020.3 1017.0
07 14.04 СЗ 3 35 км 1/0
[Ci fib]
+13.0 +8.3 73 +12 +16 1020.6 1017.2
09 14.04 В 3 35 км 3/0
[Ci fib]
+20.1 +2.4 31 +21 +30 комфорт 1019.6 1016.3
10 14.04 Ю 4 35 км 8/0
[Ci fib]
+22.5 +4.3 30 +23 +31 комфорт 1019.4 1016.1
11 14.04 Ю 2 35 км 8/0
[Ci fib]
+23.7 +4.9 30 +24 +36 комфорт 1018.4 1015.1
12 14.04 Ю 2 35 км 9/0
[Cs]
+20.5 +7.0 42 +22 +34 комфорт 1018.4 1015.1
13 14.04 Ю 2 35 км 9/0
[Cs]
+21.5 +7.0 39 +22 +32 комфорт 1018.3 1015.0
18 14.04 В 6 30 км 8/0
[Cs]
+21.3 +7.2 40 +22 +22 комфорт 1016.6 1013.3 +24.2
19 14.04 В 7 30 км 8/0
[Cs]
+20.6 +6.7 40 +21 +21 комфорт 1017.0 1013.7
20 14.04 В 7 30 км 9/0
[Cs]
+20.7 +7.1 41 +21 +21 комфорт 1016.3 1013.0
03 15.04 В 9 30 км 10/10 1000 м
[Sc]
+20.5 +9.3 49 +21 +21 комфорт 1011.7 1008.4
04 15.04 В 11
{20}
30 км 9/9 1000 м
[Sc]
+19.8 +9.1 50 +20 +20 1011.1 1007.8
05 15.04 В 8 25 км 9/9 1000 м
[Sc]
+19.6 +8.8 50 +20 +20 1012.7 1009.4
06 15.04 В 9 25 км 9/4 1000 м
[Sc Ac As]
+19.5 +9.3 52 +20 +20 1012.5 1009.2 +18.3
07 15.04 В 6 25 км 9/3 1000 м
[Sc Ac As]
+19.8 +9.5 51 +21 +21 комфорт 1012.2 1008.9
08 15.04 В 8 25 км 9/3 1000 м
[Sc Ac As Ci sp]
+21.0 +9.5 48 +22 +23 комфорт 1011.5 1008.2
09 15.04 В 6 25 км 9/3 1000 м
[Sc Ac As]
+22.5 +9.4 43 +24 +25 комфорт 1011.1 1007.9
10 15.04 В 8 20 км 9/6 1000 м
[Sc Ac As]
+22.1 +9.5 45 +24 +24 комфорт 1011.1 1007.9
11 15.04 В 7 20 км 10/10 1000 м
[Sc]
+22.3 +9.8 45 +24 +24 комфорт 1010.7 1007.5
12 15.04 В 5 20 км 9/4 1000 м
[Sc Ac As]
+25.0 +10.4 40 +26 +28 жарко 1009.7 1006.5
13 15.04 В 7 20 км 10/8 1000 м
[Sc Ac As]
+23.8 +10.3 42 +25 +25 комфорт 1009.5 1006.3
18 15.04 В 7 18 км {дождь} 10/8 1000 м
[Sc Ac As]
+20.9 +11.5 55 +23 +23 комфорт 1008.2 1005.0 +25.5 0.0
19 15.04 В 8 18 км 10/6 1000 м
[Sc Ac As]
+20.1 +11.5 58 +21 +21 комфорт 1008.3 1005.0
20 15.04 В 9 18 км 10/6 1000 м
[Sc Ac As]
+20.1 +11.5 58 +21 +21 комфорт 1008.8 1005.5
03 16.04 В 5 18 км 10/10 1000 м
[Sc]
+18.4 +11.8 65 +18 +18 1007.6 1004.3
05 16.04 В 5 15 км {гроза} 9/9 1000 м
[Sc]
+19.0 +12.5 66 +20 +20 1007.6 1004.3
04 16.04 СВ 1 12 км в посл. час гроза 9/9 1000 м
[Sc]
+18.1 +11.1 64 +19 +19 1007.9 1004.6
06 16.04 СВ 4 15 км {гроза} 9/5 1000 м
[Sc Ac As]
+19.2 +13.3 69 +20 +21 1007.9 1004.6 +16.3 0.6
07 16.04 СЗ 1 15 км 9/5 1000 м
[Sc Ac As]
+20.0 +13.1 64 +23 +24 комфорт 1008.6 1005.3
08 16.04 СЗ 2 15 км 9/6 1000 м
[Cu Sc Ac As]
+19.3 +13.9 71 +21 +23 комфорт 1008.7 1005.4
09 16.04 Ю 3 15 км 6/5 1000 м
[Cu Sc Ci fib]
+21.1 +12.9 59 +23 +28 комфорт 1008.6 1005.4
11 16.04 Ю 3 15 км 8/8 1000 м
[Cu Sc]
+20.2 +12.6 62 +22 +25 комфорт 1009.9 1006.6
10 16.04 Ю 2 15 км 6/6 1000 м
[Cu Sc]
+21.5 +13.0 58 +24 +30 комфорт 1009.6 1006.4
12 16.04 ЮВ 1 15 км 6/6 1000 м
[Cu Sc]
+22.5 +12.1 52 +25 +32 комфорт 1010.0 1006.8
13 16.04 ЮЗ 2 15 км 8/8 1000 м
[Cu Sc]
+23.2 +12.4 51 +26 +28 жарко 1010.1 1006.9
18 16.04 Ю 1 10 км 8/8 1000 м
[Sc]
+18.7 +14.0 74 +21 +21 комфорт 1011.7 1008.4 +24.7
19 16.04 СВ 1 10 км 9/9 1000 м
[Sc]
+17.6 +13.3 76 +19 +19 1012.0 1008.7
20 16.04 В 1 10 км 9/9 1000 м
[Sc]
+17.4 +13.8 79 +18 +18 1013.3 1010.0
03 17.04 С 2 15 км 3/3 1000 м
[Sc]
+17.3 +11.5 69 +18 +18 1016.5 1013.2
04 17.04 В 5 15 км 3/3 1000 м
[Sc]
+17.6 +10.7 64 +17 +17 1016.2 1012.9
05 17.04 В 6 18 км 3/3 1000 м
[Sc]
+17.9 +10.6 62 +17 +17 1016.7 1013.4
06 17.04 В 5 20 км 4/4 1000 м
[Sc]
+18.5 +10.1 58 +19 +19 1017.7 1014.4 +15.8
07 17.04 В 5 20 км 4/4 1000 м
[Sc]
+19.0 +10.5 58 +20 +21 1018.7 1015.4
08 17.04 В 6 20 км 8/8 1000 м
[Sc]
+18.9 +10.6 59 +19 +20 1019.3 1016.0
09 17.04 В 7 20 км 8/8 1000 м
[Sc]
+18.5 +11.1 62 +18 +19 1020.4 1017.1
10 17.04 В 7 20 км 9/9 1000 м
[Sc]
+18.3 +11.5 65 +18 +18 1020.5 1017.2
11 17.04 В 6 20 км 9/9 1000 м
[Sc]
+18.5 +10.1 58 +18 +19 1020.5 1017.2
12 17.04 В 5 25 км 9/9 1000 м
[Sc]
+19.0 +9.7 55 +19 +20 1020.8 1017.5
13 17.04 С 3 25 км 9/9 1000 м
[Sc]
+18.5 +9.5 56 +19 +20 1020.9 1017.6
18 17.04 СЗ 2 35 км 8/8 1000 м
[Sc]
+18.0 +10.1 60 +19 +19 1021.7 1018.4 +19.5
20 17.04 С 3 35 км 8/8 1000 м
[Sc]
+17.7 +9.9 60 +18 +18 1023.5 1020.2
19 17.04 С 2 35 км 8/8 1000 м
[Sc]
+17.8 +9.9 60 +18 +18 1022.8 1019.5
03 18.04 В 5 35 км 9/9 1000 м
[Sc]
+18.5 +7.3 48 +18 +18 1022.5 1019.2
04 18.04 В 7 30 км 9/9 1000 м
[Sc]
+18.2 +6.2 45 +18 +18 1022.7 1019.4
05 18.04 В 9
{22}
30 км 9/9 1000 м
[Sc]
+18.2 +6.9 48 +17 +17 1023.1 1019.8
06 18.04 Ю 5 30 км 9/9 1000 м
[Sc]
+17.8 +8.2 53 +17 +17 1024.6 1021.3 +17.2
08 18.04 З 3 30 км 9/5 1000 м
[Sc As op]
+18.0 +8.6 54 +18 +19 1027.0 1023.7
07 18.04 Ю 3 30 км 9/5 1000 м
[Sc As op]
+17.9 +8.5 54 +18 +19 1025.4 1022.1
09 18.04 Ю 3 30 км 9/3 1000 м
[Cu Sc As op Ci sp]
+18.7 +8.2 50 +19 +23 1027.7 1024.4
10 18.04 С 2 30 км 9/3 1000 м
[Cu Sc As op Ci sp]
+19.1 +8.5 50 +20 +26 1028.2 1024.9
11 18.04 ЮВ 4 30 км 8/3 1000 м
[Cu Sc Ci sp]
+19.8 +7.8 46 +21 +27 комфорт 1027.9 1024.6
12 18.04 ЮВ 5 30 км 6/3 1000 м
[Cu Sc Ci sp]
+20.7 +7.9 44 +22 +27 комфорт 1027.5 1024.2
13 18.04 ЮВ 6 30 км 3/1 1000 м
[Cu hum Ci sp]
+22.0 +8.3 41 +23 +27 комфорт 1027.5 1024.2
18 18.04 С 3 30 км 5/1 1000 м
[Sc Ci fib]
+21.1 +7.8 42 +22 +22 комфорт 1026.6 1023.3 +23.9
19 18.04 С 2 30 км 5/3 1000 м
[Sc Ci fib]
+20.3 +8.5 47 +22 +22 комфорт 1026.8 1023.5
20 18.04 С 3 30 км 4/3 1000 м
[Sc Ci sp]
+19.7 +9.3 51 +21 +21 комфорт 1027.0 1023.7
03 19.04 ЮВ 1 30 км ясно +15.4 +7.6 60 +16 +16 1027.6 1024.2
04 19.04 ЮВ 1 30 км ясно +16.2 +7.7 57 +17 +17 1027.5 1024.1
05 19.04 СВ 3 30 км 1/1 1000 м
[Cu hum]
+16.9 +7.9 55 +17 +17 1027.7 1024.3
06 19.04 ЮВ 1 30 км 1/1 1000 м
[Cu hum]
+16.8 +8.2 57 +18 +20 1027.7 1024.3 +15.2
07 19.04 З 1 30 км 1/1 1000 м
[Cu hum]
+18.9 +8.5 51 +21 +26 комфорт 1027.5 1024.2
08 19.04 СЗ 2 30 км 1/1 1000 м
[Cu hum]
+19.2 +8.4 50 +21 +29 комфорт 1027.2 1023.9
09 19.04 ЮВ 2 30 км 1/1 1000 м
[Cu hum]
+23.6 +9.0 39 +24 +36 комфорт 1026.6 1023.3
10 19.04 Ю 3 30 км 1/1 1000 м
[Cu hum]
+24.6 +8.1 35 +25 +36 комфорт 1026.5 1023.2
11 19.04 В 4 30 км 1/1 1000 м
[Cu hum]
+25.2 +8.0 33 +25 +35 комфорт 1026.5 1023.2
12 19.04 В 4 30 км 1/1 1000 м
[Cu hum]
+26.4 +8.6 32 +26 +36 жарко 1026.1 1022.9
13 19.04 Ю 2 30 км 1/1 1000 м
[Cu hum]
+26.8 +8.7 32 +27 +38 жарко 1025.7 1022.5
18 19.04 С 1 30 км 4/0
[Ac trans Ci fib]
+23.7 +7.5 35 +24 +24 комфорт 1024.2 1020.9 +27.7
19 19.04 СВ 1 30 км 1/0
[Ac trans]
+21.1 +5.8 37 +22 +22 комфорт 1024.3 1021.0
20 19.04 СВ 2 30 км ясно +20.7 +7.2 42 +22 +22 комфорт 1024.6 1021.3
03 20.04 ЮВ 1 30 км ясно +17.5 +7.1 50 +19 +19 1022.8 1019.5
05 20.04 СВ 2 30 км 1/0
[Ac trans]
+18.5 +8.4 52 +19 +20 1023.0 1019.7
04 20.04 ЮВ 2 30 км ясно +17.3 +7.5 53 +18 +18 1023.3 1020.0
06 20.04 СЗ 1 30 км 1/0
[Ac trans]
+18.9 +8.9 52 +21 +23 комфорт 1023.3 1020.0 +16.9
07 20.04 З 2 30 км 1/1 1000 м
[Cu hum Ac trans]
+22.1 +9.6 45 +24 +29 комфорт 1023.2 1019.9
08 20.04 ЮВ 3 30 км 1/1 1000 м
[Cu hum Ac trans]
+23.5 +9.8 42 +25 +31 комфорт 1023.3 1020.0
09 20.04 ЮВ 3 30 км 1/1 1000 м
[Cu hum Ac trans]
+24.5 +10.7 42 +26 +35 жарко 1023.2 1019.9
11 20.04 В 5 30 км 1/1 1000 м
[Cu hum Ac trans]
+26.1 +10.3 37 +27 +34 жарко 1022.2 1019.0
10 20.04 В 4 30 км 3/1 1000 м
[Cu hum Ac trans]
+25.5 +11.4 41 +27 +35 жарко 1022.8 1019.6
12 20.04 В 7 30 км 1/0
[Ac trans]
+26.9 +11.2 38 +28 +32 жарко 1021.4 1018.2
13 20.04 В 4 30 км 1/0
[Ac trans]
+27.3 +10.7 35 +28 +36 жарко 1020.9 1017.7
18 20.04 С 2 35 км 3/0
[Ci fib]
+23.9 +8.3 37 +24 +24 комфорт 1020.5 1017.2 +28.0
19 20.04 СВ 1 35 км 3/0
[Ci fib]
+21.5 +9.3 46 +23 +23 комфорт 1020.7 1017.4
20 20.04 СВ 2 35 км 3/0
[Ci fib]
+21.3 +9.0 45 +23 +23 комфорт 1020.6 1017.3
03 21.04 В 3 35 км 1/0
[Ci fib]
+18.7 +5.9 43 +19 +19 1020.4 1017.1
04 21.04 В 3 35 км 1/0
[Ci fib]
+18.7 +5.9 43 +19 +19 1020.3 1017.0

 

Местоположение метеостанции Senj (Хорватия): широта 45.00 долгота 14.90 высота над уровнем моря 28 м.

В архиве по умолчанию представлена погода в Senj за последнюю неделю. Архивные данные за месяц целиком и за предыдущие месяцы, начиная с января 2011 года, Вы можете получить, выбрав интересующий диапазон дат из раскрывающегося списка и нажав кнопку "Ввод!".


*Определитесь, кто Вы:
робот инопланетянин человек

Внимание! Время в таблицах - всемирное. Для получения местного времени необходимо прибавить поправку, которая в Senj равна 1 ч.

Смотрите также архив погоды в соседних городах и на ближайших метеорологических станциях:

Погода в Zavizan (Хорватия) (21 км)
Погода в Rab (Хорватия) (30 км)
Погода в Rijeka-Omisalj (Хорватия) (35 км)
Погода в Ogulin (Хорватия) (40 км)
Погода в Rijeka-Kozala (Хорватия) (51 км)
Погода в Mali Losinj (Хорватия) (62 км)
Погода в Gospic (Хорватия) (62 км)
Погода в Crnomelj (Словения) (66 км)
Погода в Parg (Хорватия) (70 км)
Погода в Kocevje (Словения) (72 км)

Пояснения к столбцам:

Ветер - указаны скорость ветра в м/с - средняя за 10 мин, порывы в срок и между сроками (в фигурных скобках) и направление, откуда дует ветер: С - северный, СВ - северо-восточный, В - восточный, ЮВ - юго-восточный, Ю - южный, ЮЗ - юго-западный, З - западный, СЗ - северо-западный.
Видимость - горизонтальная дальность видимости в метрах или километрах. При видимости от 1 до 10 км при отсутствии осадков обычно наблюдается дымка, при ухудшении видимости до 1 км и менее - туман. В сухую погоду видимость может ухудшаться дымом, пылью или мглою.
Явления - указаны атмосферные явления, наблюдавшиеся в срок или в последний час перед сроком; фигурными скобками обозначены явления, наблюдавшиеся между сроками (за 1-3 часа до срока); квадратными скобками обозначены град или гололедные отложения с указанием их диаметра в мм.
Облачность - указаны через наклонную черту общая и нижняя облачность в баллах и высота нижней границы облаков в метрах; квадратными скобками обозначены формы облаков: Ci - перистые, Cs - перисто-слоистые, Cc - перисто-кучевые, Ac - высококучевые, As - высокослоистые, Sc - слоисто-кучевые, Ns - слоисто-дождевые, Cu - кучевые, Cb - кучево-дождевые. Подробнее классификацию облаков см. в Атласе облаков (PDF).
T - Температура воздуха - температура, измеренная на высоте 2 м над землей.
Td - Температура точки росы - температура, при понижении до которой содержащийся в воздухе водяной пар достигнет насыщения.
f - Относительная влажность воздуха - влажноcть воздуха, измеренная на высоте 2 м над землей.
Te - Эффективная температура - температура, которую ощущает одетый по сезону человек в тени. Характеристика душности погоды. При расчете учитывается влияние влажности воздуха и скорости ветра на теплоощущения человека.
Tes - Эффективная температура на солнце - температура, которую ощущает человек, с поправкой на солнечный нагрев. Характеристика знойности погоды. Зависит от высоты солнца над горизонтом, облачности и скорости ветра. Ночью, в пасмурную погоду, а также при ветре 12 м/с и более поправка равна нулю.
P - Атмосферное давление - приведенное к уровню моря атмосферное давление.
Po - Атмосферное давление - измеренное на уровне метеостанции атмосферное давление.
Tmin - Минимальная температура - минимум температуры воздуха на высоте 2 м над землей.
Tmax - Максимальная температура - максимум температуры воздуха на высоте 2 м над землей.
R - Количество осадков - Количество выпавших осадков за период времени, мм. При наведении курсора мыши на число - период времени, за который выпало указанное количество осадков.
R24 - Количество осадков - Количество выпавших осадков за 24 часа, мм.
S - Снежный покров - Высота снежного покрова, см. При наведении курсора мыши на число - состояние снежного покрова и степень покрытия местности в баллах.